This is the latest recevied weather packets stored in our database for station/object WD7OO. If no packets are shown the sender has not sent any weather packets the latest 10 day(s).
| Time | Temp. | Humidity | Pressure | Rain* | Wind** | Luminosity | Snow |
|---|---|---|---|---|---|---|---|
| 1777811106 | 9.44° C | 59% | 1015.6 hPa | 0 mm | - | 203 W/m² | - |
| 1777810803 | 8.89° C | 56% | 1015.5 hPa | 0 mm | - | 103 W/m² | - |
| 1777810500 | 8.89° C | 57% | 1015.8 hPa | 0 mm | - | 77 W/m² | - |
| 1777810196 | 8.89° C | 58% | 1015.9 hPa | 0 mm | - | 84 W/m² | - |
| 1777809893 | 8.89° C | 57% | 1015.6 hPa | 0 mm | - | 101 W/m² | - |
| 1777809592 | 8.33° C | 60% | 1015.7 hPa | 0 mm | - | 93 W/m² | - |
| 1777809289 | 8.33° C | 58% | 1015.5 hPa | 0 mm | - | 60 W/m² | - |
| 1777808986 | 7.78° C | 59% | 1015.8 hPa | 0 mm | - | 46 W/m² | - |
| 1777808684 | 7.78° C | 60% | 1015.4 hPa | 0 mm | - | 42 W/m² | - |
| 1777808380 | 7.22° C | 61% | 1015.4 hPa | 0 mm | - | 39 W/m² | - |
| 1777808078 | 7.22° C | 61% | 1015.4 hPa | 0 mm | - | 35 W/m² | - |
| 1777807776 | 7.22° C | 61% | 1015.3 hPa | 0 mm | - | 33 W/m² | - |
| 1777807474 | 7.22° C | 62% | 1015.5 hPa | 0 mm | - | 29 W/m² | - |
| 1777807169 | 7.22° C | 61% | 1015.4 hPa | 0 mm | - | 26 W/m² | - |
| 1777806867 | 7.22° C | 61% | 1015.5 hPa | 0 mm | - | 23 W/m² | - |
| 1777806563 | 6.67° C | 62% | 1015.4 hPa | 0 mm | - | 19 W/m² | - |
| 1777806259 | 6.67° C | 63% | 1015.5 hPa | 0 mm | - | 16 W/m² | - |
| 1777805955 | 6.67° C | 62% | 1015.5 hPa | 0 mm | - | 12 W/m² | - |
| 1777805652 | 6.67° C | 60% | 1015.2 hPa | 0 mm | - | 10 W/m² | - |
| 1777805350 | 6.11° C | 63% | 1015.3 hPa | 0 mm | - | 5 W/m² | - |
| 1777805048 | 6.11° C | 64% | 1015.4 hPa | 0 mm | - | 4 W/m² | - |
| 1777804745 | 6.11° C | 64% | 1015.4 hPa | 0 mm | - | 2 W/m² | - |
| 1777804443 | 6.11° C | 64% | 1015.6 hPa | 0 mm | - | 0 W/m² | - |
| 1777804140 | 6.11° C | 64% | 1015.3 hPa | 0 mm | - | 0 W/m² | - |
| 1777803836 | 6.11° C | 64% | 1015.3 hPa | 0 mm | - | 0 W/m² | - |
* Rain latest hour (hover to see other rain measurements)
** Current wind speed in m/s (hover to see current wind gust speed)